TimeEDT,TemperatureF,Dew PointF,Humidity,Sea Level PressureIn,VisibilityMPH,Wind Direction,Wind SpeedMPH,Gust SpeedMPH,PrecipitationIn,Events,Conditions,WindDirDegrees,DateUTC
12:06 AM,51.8,50.0,94,29.95,10.0,East,3.5,-,N/A,,Overcast,100,2013-05-11 04:06:00
12:53 AM,52.0,48.9,89,29.95,10.0,East,3.5,-,N/A,,Overcast,80,2013-05-11 04:53:00
1:53 AM,52.0,48.9,89,29.93,10.0,East,3.5,-,N/A,,Overcast,100,2013-05-11 05:53:00
2:40 AM,51.8,48.2,88,29.92,10.0,East,3.5,-,N/A,,Overcast,100,2013-05-11 06:40:00
2:53 AM,51.1,48.9,92,29.92,10.0,Calm,Calm,-,N/A,,Overcast,0,2013-05-11 06:53:00
3:53 AM,51.1,48.0,89,29.89,10.0,ESE,3.5,-,N/A,,Overcast,120,2013-05-11 07:53:00
4:53 AM,51.1,48.0,89,29.88,10.0,East,4.6,-,N/A,,Overcast,90,2013-05-11 08:53:00
5:22 AM,51.8,48.2,88,29.87,10.0,East,4.6,-,N/A,,Mostly Cloudy,80,2013-05-11 09:22:00
5:53 AM,51.1,48.0,89,29.88,9.0,Calm,Calm,-,N/A,,Scattered Clouds,0,2013-05-11 09:53:00
6:53 AM,53.1,48.9,86,29.85,9.0,East,4.6,-,N/A,,Overcast,90,2013-05-11 10:53:00
7:31 AM,53.6,50.0,88,29.84,8.0,East,4.6,-,N/A,,Overcast,100,2013-05-11 11:31:00
7:43 AM,53.6,50.0,88,29.83,8.0,Variable,3.5,-,N/A,,Overcast,0,2013-05-11 11:43:00
7:53 AM,55.0,51.1,86,29.83,8.0,SE,3.5,-,N/A,,Overcast,130,2013-05-11 11:53:00
8:28 AM,55.4,51.8,88,29.85,1.8,Variable,4.6,-,0.05,Rain,Rain,0,2013-05-11 12:28:00
8:44 AM,53.6,51.8,94,29.83,2.0,Variable,5.8,-,0.09,Rain,Light Rain,0,2013-05-11 12:44:00
8:53 AM,54.0,52.0,93,29.82,3.0,ESE,5.8,-,0.10,Rain,Light Rain,120,2013-05-11 12:53:00
9:53 AM,53.1,51.1,93,29.83,5.0,South,5.8,-,0.02,Rain,Light Rain,190,2013-05-11 13:53:00
10:53 AM,54.0,52.0,93,29.81,3.0,Variable,5.8,-,0.00,,Overcast,0,2013-05-11 14:53:00
11:53 AM,55.9,53.1,90,29.80,6.0,SE,4.6,-,N/A,,Overcast,140,2013-05-11 15:53:00
12:24 PM,59.0,55.4,88,29.78,9.0,SSW,6.9,-,N/A,,Overcast,210,2013-05-11 16:24:00
12:53 PM,60.1,55.9,86,29.78,10.0,Variable,5.8,-,N/A,,Overcast,0,2013-05-11 16:53:00
1:53 PM,61.0,55.0,81,29.77,10.0,Variable,5.8,-,N/A,,Overcast,0,2013-05-11 17:53:00
2:22 PM,60.8,55.4,82,29.77,8.0,South,3.5,-,N/A,,Overcast,170,2013-05-11 18:22:00
2:53 PM,59.0,55.9,90,29.76,6.0,South,4.6,-,0.01,Rain,Light Rain,170,2013-05-11 18:53:00
3:53 PM,57.9,55.9,93,29.75,3.0,SE,4.6,-,0.04,Rain,Light Rain,130,2013-05-11 19:53:00
4:53 PM,59.0,55.9,90,29.73,7.0,South,8.1,-,0.01,,Overcast,170,2013-05-11 20:53:00
5:07 PM,57.2,55.4,94,29.73,5.0,South,6.9,-,0.00,Rain,Light Rain,170,2013-05-11 21:07:00
5:17 PM,59.0,55.4,88,29.73,6.0,Variable,6.9,-,0.00,,Overcast,0,2013-05-11 21:17:00
5:53 PM,60.1,55.9,86,29.72,7.0,SSW,12.7,19.6,0.00,,Overcast,200,2013-05-11 21:53:00
6:01 PM,60.8,55.4,82,29.72,8.0,SSW,8.1,19.6,N/A,,Overcast,200,2013-05-11 22:01:00
6:53 PM,59.0,55.0,87,29.72,7.0,South,9.2,-,0.00,,Overcast,190,2013-05-11 22:53:00
7:21 PM,59.0,55.4,88,29.72,7.0,Variable,6.9,-,0.00,Rain,Light Rain,0,2013-05-11 23:21:00
7:25 PM,59.0,55.4,88,29.72,7.0,SSW,6.9,-,0.00,Rain,Light Rain,200,2013-05-11 23:25:00
7:35 PM,59.0,55.4,88,29.71,6.0,SSW,4.6,-,0.01,Rain,Light Rain,200,2013-05-11 23:35:00
7:45 PM,59.0,55.4,88,29.71,7.0,SSW,5.8,-,0.01,,Overcast,200,2013-05-11 23:45:00
7:53 PM,59.0,55.9,90,29.72,8.0,SSW,9.2,-,0.01,,Overcast,200,2013-05-11 23:53:00
8:53 PM,60.1,55.9,86,29.73,9.0,SW,9.2,17.3,N/A,,Overcast,220,2013-05-12 00:53:00
9:53 PM,59.0,55.9,90,29.73,10.0,SSW,9.2,-,0.00,,Overcast,210,2013-05-12 01:53:00
10:53 PM,59.0,55.9,90,29.73,10.0,SSW,5.8,-,N/A,,Overcast,210,2013-05-12 02:53:00
11:53 PM,57.9,55.9,93,29.72,9.0,SW,3.5,-,N/A,,Overcast,230,2013-05-12 03:53:00